• MPC Preparation (Info)

  • MPEC 2019-X62 : 2019 XG1

    The following Minor Planet Electronic Circular may be linked-to from your own Web pages, but must not otherwise be redistributed electronically.

    A form allowing access to any MPEC is at the bottom of this page.


    Read MPEC 2019-X61 Read MPEC 2019-X63


    M.P.E.C. 2019-X62                              Issued 2019 December 5, 15:24 UT
    
         The Minor Planet Electronic Circulars contain information on unusual
             minor planets and routine data on comets.  They are published
        on behalf of Division F of the International Astronomical Union by the
              Minor Planet Center, Smithsonian Astrophysical Observatory,
                              Cambridge, MA 02138, U.S.A.
    
                 Prepared using the Tamkin Foundation Computer Network
    
                                  MPC@CFA.HARVARD.EDU
                URL https://www.minorplanetcenter.net/    ISSN 1523-6714
    
                                    2019 XG1                                 
    
    
    Observations:
         K19X01G* C2019 12 03.46909607 38 19.358+27 24 44.32         20.49wUEX062F51
         K19X01G  C2019 12 03.48109107 38 20.311+27 24 51.02         20.45wUEX062F51
         K19X01G  C2019 12 03.49316807 38 21.262+27 24 57.79         20.38wUEX062F51
         K19X01G KC2019 12 03.89388 07 38 55.42 +27 28 28.7          19.6 RVEX062A17
         K19X01G KC2019 12 03.90544 07 38 56.36 +27 28 35.5          19.4 RVEX062A17
         K19X01G KC2019 12 03.91856 07 38 57.41 +27 28 43.8          19.5 RVEX062A17
         K19X01G KC2019 12 03.94720007 38 59.86 +27 29 00.5          19.6 G EX062L01
         K19X01G KC2019 12 03.94995707 39 00.04 +27 29 01.8          19.5 G EX062L01
         K19X01G KC2019 12 03.95271307 39 00.23 +27 29 03.2          19.7 G EX062L01
         K19X01G KC2019 12 03.97103807 39 01.73 +27 29 14.1          19.9 G EX062L01
         K19X01G KC2019 12 03.97497807 39 02.08 +27 29 16.6          19.9 G EX062L01
         K19X01G KC2019 12 04.02498 07 39 06.05 +27 29 44.2          20.0 RVEX062K61
         K19X01G KC2019 12 04.02651 07 39 06.15 +27 29 44.8          19.3 RVEX062K61
         K19X01G KC2019 12 04.02773 07 39 06.21 +27 29 46.1          20.2 RVEX062K61
         K19X01G  C2019 12 04.17504 07 39 18.16 +27 31 06.6          20.0 VVEX062033
         K19X01G  C2019 12 04.17613 07 39 18.24 +27 31 07.1          20.3 VVEX062033
         K19X01G  C2019 12 04.17720 07 39 18.32 +27 31 07.8          20.3 VVEX062033
         K19X01G KC2019 12 04.28563007 39 28.21 +27 32 11.5          20.0 VuEX062H21
         K19X01G KC2019 12 04.28767207 39 28.37 +27 32 12.7          20.1 VuEX062H21
         K19X01G KC2019 12 04.28971407 39 28.53 +27 32 13.7          20.2 VuEX062H21
         K19X01G KC2019 12 04.29175607 39 28.70 +27 32 15.1          20.2 VuEX062H21
         K19X01G KC2019 12 04.29379807 39 28.84 +27 32 16.3          20.2 VuEX062H21
         K19X01G KC2019 12 04.29767807 39 29.17 +27 32 18.4          20.1 VuEX062H21
         K19X01G KC2019 12 04.36459 07 39 34.61 +27 32 56.0          19.8 GVEX062H36
         K19X01G KC2019 12 04.37807 07 39 35.71 +27 33 04.1          19.7 GVEX062H36
         K19X01G KC2019 12 04.38711 07 39 36.41 +27 33 09.6          20.1 GVEX062H36
         K19X01G  C2019 12 04.92344 07 40 22.04 +27 38 07.6          20.7 VVEX062033
         K19X01G KC2019 12 04.92446 07 40 22.16 +27 38 09.9          19.5 RoEX062K88
         K19X01G  C2019 12 04.92453 07 40 22.13 +27 38 08.4          20.6 VVEX062033
         K19X01G  C2019 12 04.92561 07 40 22.25 +27 38 09.0          20.7 VVEX062033
         K19X01G KC2019 12 04.93415 07 40 22.87 +27 38 15.5          19.5 RoEX062K88
         K19X01G  C2019 12 04.96366 07 40 25.36 +27 38 32.0                VEX062246
         K19X01G  C2019 12 04.96836 07 40 25.63 +27 38 36.1                VEX062246
         K19X01G  C2019 12 04.97181 07 40 25.98 +27 38 37.9                VEX062246
         K19X01G  C2019 12 04.97307 07 40 25.91 +27 38 39.1                VEX062246
         K19X01G KC2019 12 05.12442 07 40 38.20 +27 40 05.2          19.0 GVEX062K87
         K19X01G KC2019 12 05.12546 07 40 38.29 +27 40 05.9          19.3 GVEX062K87
         K19X01G KC2019 12 05.12650 07 40 38.39 +27 40 06.9          20.1 GVEX062K87
         K19X01G  C2019 12 05.15345 07 40 40.53 +27 40 21.3          20.3 VVEX062033
         K19X01G  C2019 12 05.15454 07 40 40.62 +27 40 21.9          20.4 VVEX062033
         K19X01G  C2019 12 05.15563 07 40 40.72 +27 40 22.6          20.1 VVEX062033
         K19X01G  C2019 12 05.22505 07 40 46.35 +27 41 01.7          21.6 VVEX062033
         K19X01G  C2019 12 05.22614 07 40 46.42 +27 41 02.4          22.0 VVEX062033
         K19X01G  C2019 12 05.22723 07 40 46.52 +27 41 02.7          22.0 VVEX062033
         K19X01G KC2019 12 05.23131507 40 47.95 +27 41 07.6          19.9 VuEX062H21
         K19X01G KC2019 12 05.23567807 40 48.30 +27 41 10.5          20.0 VuEX062H21
         K19X01G KC2019 12 05.23858507 40 48.53 +27 41 12.2          20.0 VuEX062H21
         K19X01G KC2019 12 05.24294307 40 48.87 +27 41 14.7          20.2 VuEX062H21
         K19X01G KC2019 12 05.36272 07 40 58.49 +27 42 25.5          20.0 GVEX062734
         K19X01G KC2019 12 05.36527 07 40 58.69 +27 42 27.1          20.1 GVEX062734
         K19X01G KC2019 12 05.37037 07 40 59.13 +27 42 30.0          20.5 GVEX062734
         K19X01G KC2019 12 05.37292 07 40 59.32 +27 42 31.5          20.1 GVEX062734
    
    Observer details:
    033 Karl Schwarzschild Observatory, Tautenburg.  Observers S. Melnikov, U. Laux,
        B. Stecklum.  Measurer B. Stecklum.  1.34-m f/3 Schmidt + CCD.
    246 Klet Observatory-KLENOT.  Observers M. Tichy, J. Ticha.  Measurer M. Tichy. 
        1.06-m f/2.7 reflector + 2048x2048 CCD.
    734 Farpoint Observatory, Eskridge.  Observers G. Hug, D. Cromer, D. Goodin.  
        Measurer D. Cromer.  0.69-m reflector + CCD.
    A17 Guidestar Observatory, Weinheim.  Observers M. Emmerich, S. Melchert.  
        0.36-m f/6 Schmidt-Cassegrain + CCD.
    F51 Pan-STARRS 1, Haleakala.  Observers J. Bulger, T. Lowe, A. Schultz, M. 
       Willman.  Measurers K. Chambers, S. Chastel, T. de Boer, L. Denneau, J. 
       Fairlamb, H. Flewelling, M. Huber, C.-C. Lin, E. Magnier, Y. Ramanjooloo, R. 
       Wainscoat, R. Weryk.  1.8-m Ritchey-Chretien + CCD.
    H21 Astronomical Research Observatory, Westfield.  Observer R. Holmes.  
        Measurers S. Foglia, L. Buzzi, T. Linder, R. Holmes.  0.76-m f/3.0 
       astrograph + CCD.
    H36 Sandlot Observatory, Scranton.  Observer G. Hug.  0.56-m reflector + CCD.
    K61 Rokycany Observatory.  Observer M. Adamovsky.  0.51-m f/6.8 reflector + CCD.
    K87 Dettelbach Vineyard Observatory.  Observer B. Haeusler.  0.3-m f/5.7 
       Schmidt-Cassegrain + CCD.
    K88 GINOP-KHK, Piszkesteto.  Observer K. Sarneczky.  0.60-m Schmidt + CCD.
    L01 Visnjan Observatory, Tican.  Observers K. Korlevic, F. Valentine.  Measurer 
       K. Korlevic.  1.0-m f/2.9 reflector + CCD.
    
    Orbital elements:
    2019 XG1                                                 Earth MOID = 0.2076 AU
    Epoch 2020 May 31.0 TT = JDT 2459000.5                  Veres
    M  20.15106              (2000.0)            P               Q
    n   0.22144547     Peri.   95.00892     -0.92334402     -0.37194048
    a   2.7057740      Node    63.18328     +0.29613132     -0.84790424
    e   0.5697323      Incl.    6.13472     +0.24442190     -0.37778127
    P   4.45           H   19.1           G   0.15           U   8
    Residuals in seconds of arc
    191203 F51  0.0   0.0     191204 H21  0.3+  0.2+    191205 K87  0.3-  0.1-
    191203 F51  0.0   0.0     191204 H21  0.2+  0.0     191205 K87  0.1-  0.3+
    191203 F51  0.0   0.0     191204 H21  0.3+  0.2+    191205 033  0.2-  0.2-
    191203 A17  0.2+  0.2-    191204 H21  0.0   0.3+    191205 033  0.2-  0.2-
    191203 A17  0.1-  0.1-    191204 H21  0.3+  0.1+    191205 033  0.0   0.2-
    191203 A17  0.5-  0.7+    191204 H36  0.5+  0.3-    191205 033  0.3+  0.0
    191203 L01  0.7+  0.2-    191204 H36  0.9+  0.2+    191205 033  0.1+  0.1+
    191203 L01  0.1+  0.5-    191204 H36  0.7+  0.7+    191205 033  0.2+  0.2-
    191203 L01  0.4-  0.7-    191204 033  0.1-  0.6-    191205 H21  0.2+  0.3-
    191203 L01  0.2-  0.3-    191204 K88  0.7+  0.1+    191205 H21  0.1+  0.0
    191203 L01  0.2+  0.0     191204 033  0.1-  0.4-    191205 H21  0.1+  0.0
    191204 K61  0.2-  0.2+    191204 033  0.3+  0.5-    191205 H21  0.0   0.2-
    191204 K61  0.5-  0.1-    191204 K88  0.4-  0.0     191205 734  0.1+  0.0
    191204 K61  1.1-  0.5+    191204 246  0.5+  0.5-    191205 734  0.1+  0.1+
    191204 033  0.0   0.3-    191204 246  1.0-  0.9+    191205 734  0.6+  0.0
    191204 033  0.1-  0.4-    191204 246  0.0   0.6+    191205 734  0.4+  0.1+
    191204 033  0.2-  0.3-    191204 246  2.3-  1.1+
    191204 H21  0.3+  0.2+    191205 K87  0.4-  0.2-
    
    Ephemeris:
    2019 XG1                 a,e,i = 2.71, 0.57, 6                   q = 1.1642
    Date    TT    R. A. (2000) Decl.     Delta      r    Elong.  Phase     V
    2019 11 05    06 55 25.8 +24 35 50   1.0289  1.7446   119.4    29.7    21.7
    ...
    2019 11 20    07 18 41.6 +25 45 44   0.8215  1.6371   129.3    27.8    21.0
    ...
    2019 11 28    07 30 30.2 +26 39 11   0.7221  1.5807   134.8    26.3    20.6
    ...
    2019 12 04    07 39 03.7 +27 29 35   0.6531  1.5393   139.0    24.9    20.3
    2019 12 05    07 40 27.9 +27 38 59   0.6421  1.5324   139.7    24.6    20.2
    2019 12 06    07 41 51.7 +27 48 41   0.6313  1.5256   140.4    24.3    20.2
    ...
    2019 12 12    07 50 07.8 +28 53 43   0.5692  1.4853   144.5    22.6    19.8
    ...
    2019 12 20    08 00 54.2 +30 40 44   0.4946  1.4333   149.9    20.1    19.4
    ...
    2020 01 04    08 21 04.7 +35 10 34   0.3807  1.3432   157.7    16.1    18.5
    
    A. U. Tomatic                (C) Copyright 2019 MPC           M.P.E.C. 2019-X62
    


    Read MPEC 2019-X61 Read MPEC 2019-X63


    MPEC number:

    Enter an MPEC number in one of the following forms:

    • 1997-B01 (the full form)
    • J97B01 (the packed version of the full form)
    • B01 (the abbreviated form)